Location: Tucson
(32.2217°N, 110.9265°W)
Time: 13:56:13
(UTC-07:00)

A-11 Canister half - Pass Details

Date: 28 October 2021
Orbit: 1516 x 1684 km, 47.2° (Epoch: 04 December)

Event Time Altitude Azimuth Distance (km) Brightness Sun altitude
Rises 18:03:00 0° 259° (W) 4,930 14.6 -6.2°
Reaches altitude 10° 18:06:24 10° 265° (W) 3,940 12.9 -6.9°
Maximum altitude 18:16:02 46° 337° (NNW) 2,118 9.9 -8.9°
Drops below altitude 10° 18:25:30 10° 49° (NE) 3,864 10.6 -10.9°
Enters shadow 18:26:30 - 51° (NE) 4,151 10.7 -11.1°
